Location: Wildlife_Club
(35.6000°N, 81.4330°W)
Time: 04:52:35
(UTC-04:00)

Daily predictions for brighter satellites

Satellite Brightness Start Highest point End
(mag) Time Altitude Azimuth Time Altitude Azimuth Time Altitude Azimuth
Cosmos 2058 4.3 00:12:00 35° WNW 00:12:00 35° WNW 00:15:21 10° N
H-2A R/B 4.1 00:12:35 17° WSW 00:13:47 18° W 00:17:23 10° NW
Cosmos 1844 Rocket 4.3 00:16:14 21° ENE 00:16:14 21° ENE 00:18:46 10° NE
Cosmos 1455 3.9 00:10:47 10° N 00:12:57 32° N 00:12:57 32° N
Cosmos 1503 Rocket 4.2 00:19:42 64° NW 00:19:42 64° NW 00:24:37 10° NNE
Cosmos 1943 3.3 00:15:20 10° NNW 00:20:39 67° W 00:20:39 67° W
CZ-2C R/B 3.7 00:28:02 51° ENE 00:28:02 51° ENE 00:33:29 10° N
Lacrosse 5 2.8 00:26:10 10° NW 00:29:38 40° WNW 00:29:38 40° WNW
Cosmos 1633 Rocket 4.5 00:33:49 34° NNE 00:33:49 34° NNE 00:36:20 10° NNE
H-2A R/B 4.2 00:37:37 19° WNW 00:37:37 19° WNW 00:39:51 10° NW
Cosmos 968 Rocket 4.1 00:53:51 51° NNE 00:53:51 51° NNE 00:57:47 10° NNE
CZ-2C R/B 2.9 00:51:20 10° N 00:55:49 62° NNW 00:55:49 62° NNW
Cosmos 2278 Rocket 3.9 01:03:25 22° ENE 01:03:25 22° ENE 01:06:15 10° NE
Cosmos 540 Rocket 4.4 00:57:29 10° NNW 01:01:10 42° NW 01:01:10 42° NW
Cosmos 1844 4.4 01:07:54 45° ENE 01:07:54 45° ENE 01:12:01 10° NNE
Cosmos 2034 Rocket 4.4 01:11:09 10° NNW 01:17:05 54° W 01:17:05 54° W
COSMOS 2406 3.6 01:13:58 10° NNW 01:19:01 59° NE 01:19:01 59° NE
ALOS 2 4.3 01:23:03 30° NW 01:23:03 30° NW 01:25:25 10° NNW
CZ-4C R/B 2.6 01:22:54 56° NNW 01:22:54 56° NNW 01:28:04 10° NNE
Meteor 2-10 Rocket 4.0 01:22:43 10° N 01:27:04 60° N 01:27:04 60° N
CZ-4B R/B 4.4 01:31:59 16° NNE 01:31:59 16° NNE 01:32:54 10° N
Meteor 2-3 Rocket 4.0 01:36:55 65° NE 01:36:55 65° NE 01:41:57 10° NNE
ATLAS 3B R/B 4.3 01:41:11 22° ESE 01:41:11 22° ESE 01:46:06 10° ENE
Cosmos 1634 Rocket 4.1 01:50:27 10° NNW 01:56:07 67° WNW 01:56:07 67° WNW
Cosmos 1844 Rocket 3.7 01:57:52 36° WNW 01:57:53 36° WNW 02:03:01 10° N
Cosmos 1680 Rocket 4.3 02:00:32 10° N 02:05:27 46° ENE 02:05:27 46° ENE
Aureole 3 4.5 02:11:57 68° NW 02:11:57 68° NW 02:16:54 10° N
Cosmos 2180 Rocket 4.4 02:09:09 10° N 02:15:30 79° E 02:15:39 78° ESE
Cosmos 1898 Rocket 4.3 02:22:53 43° ENE 02:22:53 43° ENE 02:27:07 10° NNE
Cosmos 1607 3.9 02:24:04 68° E 02:24:04 68° E 02:30:00 10° NE
SeaSat 1 4.1 02:26:04 24° E 02:27:49 30° ENE 02:32:05 10° N
CZ-2D R/B 4.3 02:30:19 10° ENE 02:33:21 15° E 02:34:35 14° ESE
Cosmos 1932 4.3 02:40:33 80° SSW 02:40:59 90° E 02:47:34 10° NNE
H-2A R/B 3.9 02:40:33 10° N 02:43:43 33° NW 02:43:43 33° NW
Cosmos 2278 Rocket 3.1 02:45:15 37° WNW 02:45:30 37° WNW 02:50:44 10° N
Nadezhda 4 Rocket 3.9 02:50:39 69° WSW 02:51:05 72° W 02:57:24 10° N
Cosmos 2369 Rocket 4.3 02:54:36 14° ESE 02:56:11 15° E 02:59:18 10° ENE
IRS-P3 4.2 02:51:31 10° NNE 02:56:49 64° E 02:57:02 64° ESE
Cosmos 1833 Rocket 3.1 02:51:48 10° NNW 02:57:23 59° ENE 02:58:54 44° ESE
NPP 3.8 02:53:40 10° NNE 02:59:01 62° E 02:59:20 61° ESE
COSMOS 2487 4.2 03:01:10 10° N 03:03:26 31° NNE 03:03:26 31° NNE
GP-B 3.6 03:00:22 10° NNE 03:04:28 54° ENE 03:04:28 54° ENE
Cosmos 2297 3.8 03:04:57 59° W 03:05:17 60° WNW 03:10:54 10° NNE
SL-16 R/B 3.8 03:01:34 15° SE 03:06:10 37° ENE 03:11:49 10° N
Cosmos 2298 Rocket 3.9 03:07:34 80° W 03:07:38 80° WNW 03:12:58 10° NNE
USA 267 3.9 03:08:33 10° ENE 03:14:33 38° SE 03:15:50 35° SSE
Cosmos 1733 Rocket 3.8 03:19:01 42° NW 03:19:01 42° NW 03:22:28 10° N
Cosmos 2150 Rocket 4.0 03:19:04 68° WSW 03:19:30 72° WNW 03:24:58 10° NNE
Exosat Rocket 4.1 03:14:10 10° NNW 03:19:56 84° ENE 03:24:04 29° SSE
BREEZE-M DEB (TANK) 4.1 03:18:10 47° SW 03:20:24 87° NW 03:44:56 10° NE
Cosmos 2082 Rocket 2.0 03:16:38 10° NNW 03:22:15 79° WSW 03:22:59 67° S
ADEOS Rocket 3.5 03:14:50 10° NNE 03:22:27 76° ESE 03:25:04 43° S
ATLAS 3B R/B 2.9 03:28:26 44° SW 03:30:56 70° WNW 03:38:11 10° NNE
Cosmos 44 4.2 03:32:00 32° WNW 03:32:19 33° NW 03:36:25 10° N
Sich 1 Rocket 3.5 03:38:43 73° WSW 03:38:56 75° W 03:43:31 10° N
Meteor 1-27 Rocket 4.4 03:37:26 10° NNW 03:42:53 38° W 03:43:19 38° WSW
ERS-1 4.5 03:39:24 10° NNE 03:44:38 82° ESE 03:46:01 50° S
Gbstr 26 Del rocket 4.5 03:45:07 21° ESE 03:45:07 21° ESE 03:47:38 10° ENE
ADEOS 3.8 03:41:13 10° NNE 03:46:26 65° ESE 03:48:13 40° SSE
AQUA 4.1 03:42:21 10° N 03:46:58 51° WNW 03:47:29 49° W
Okean 3 3.3 03:43:24 10° N 03:47:37 73° W 03:47:40 73° W
Cosmos 1417 Rocket 4.4 03:41:59 10° N 03:48:09 84° E 03:51:20 31° S
Cosmos 1937 Rocket 4.3 03:49:53 32° W 03:50:42 34° WNW 03:55:24 10° N
Cosmos 1674 Rocket 4.4 03:47:18 10° NNW 03:50:50 35° WNW 03:50:50 35° WNW
Timation 2 Rocket 3.8 03:46:24 10° NNW 03:52:30 75° WSW 03:56:12 26° S
Cosmos 1633 4.0 03:54:43 27° SE 03:55:48 33° E 03:59:06 10° NNE
Resurs 1-4 Rocket 2.0 03:52:56 10° N 03:58:16 80° WNW 04:00:04 43° SSW
Cosmos 1908 Rocket 4.2 03:58:21 40° W 03:58:31 40° W 04:02:43 10° N
COBE Rocket 4.2 03:55:51 10° N 04:00:30 49° WNW 04:01:30 42° WSW
Geosat 4.5 03:55:53 10° NNE 04:00:42 48° WNW 04:02:09 37° WSW
BREEZE-M DEB (TANK) 3.5 03:56:48 31° SW 04:01:17 73° SE 04:04:58 10° ENE
BREEZE M DEB (TANK) 3.3 04:04:02 21° E 04:04:02 21° E 04:05:04 10° ENE
BREEZE-M DEB (TANK) 2.3 04:04:04 46° NNW 04:04:07 46° NNW 04:08:18 10° NE
SeaSat 1 3.3 04:05:49 30° W 04:05:49 30° W 04:09:36 10° NW
MOS 1 Rocket 3.9 03:59:55 10° NNE 04:05:14 61° E 04:08:00 27° S
OAO 1 4.4 04:04:33 40° WSW 04:06:33 73° SSE 04:12:01 10° E
Okean 2 Rocket 3.0 04:05:26 47° S 04:06:42 89° WNW 04:11:07 10° N
Cosmos 1378 Rocket 4.1 04:09:03 10° NNW 04:13:03 38° W 04:13:18 38° W
CZ-2D R/B 2.3 04:08:26 10° N 04:13:43 59° WNW 04:15:54 34° SW
Cosmos 1125 Rocket 3.4 04:11:41 36° SSW 04:13:54 84° WNW 04:19:13 10° NNE
Delta 2 Rocket 4.0 04:15:57 37° WSW 04:17:09 44° SSW 04:21:34 10° SE
SL-08 R/B 4.5 04:18:18 26° W 04:18:18 26° W 04:22:18 10° NW
ARIANE 5 R/B 2.7 04:14:09 10° N 04:19:02 55° WNW 04:20:57 34° SW
Cosmos 1553 Rocket 4.0 04:13:23 10° NNW 04:19:43 66° W 04:23:53 22° S
Cosmos 1782 Rocket 4.2 04:20:22 35° WSW 04:21:19 39° W 04:25:32 10° N
USA 238 DEB 4.4 04:18:44 23° WSW 04:22:34 43° NW 04:29:11 10° NNE
USA 238 4.4 04:18:50 24° WSW 04:22:41 43° NW 04:29:18 10° NNE
CZ-2D R/B 3.7 04:18:19 10° NNE 04:22:44 76° ESE 04:25:06 27° S
UNKNOWN OBJECT B 2.6 04:25:05 10° N 04:28:48 76° WNW 04:30:08 37° SSW
IRS-1D 4.2 04:24:20 10° N 04:29:02 39° WNW 04:31:04 27° WSW
Meteor 1-18 Rocket 4.2 04:27:17 10° NNW 04:32:44 60° W 04:36:38 19° S
CZ-3A R/B 4.0 04:31:03 23° SW 04:34:51 33° S 05:03:55 10° ESE
Cosmos 1943 Rocket 2.4 04:33:06 19° S 04:37:08 69° ESE 04:42:44 10° NNE
Cosmos 2369 Rocket 2.3 04:36:24 25° SW 04:39:34 60° WNW 04:45:09 10° NNE
Okean O Rocket 3.5 04:36:44 10° NE 04:40:27 27° E 04:44:10 10° SSE
Cosmos 1833 Rocket 4.3 04:37:30 10° WNW 04:40:32 16° W 04:40:32 16° W
PSLV R/B 3.1 04:41:01 37° WSW 04:42:12 85° SSE 04:45:31 10° ENE
Cosmos 1346 3.8 04:39:52 10° NNW 04:41:59 30° WNW 04:41:59 30° WNW
Cosmos 1437 4.2 04:43:27 10° NW 04:45:48 21° W 04:45:48 21° W
Cosmos 1269 Rocket 4.0 04:41:00 10° NNW 04:46:19 85° WSW 04:51:36 10° SSE
Cosmos 405 Rocket 2.8 04:43:39 10° NNW 04:47:34 59° W 04:50:19 18° S
COSMOS 2455 2.8 04:44:20 19° SSW 04:48:45 87° ESE 04:54:48 10° NNE
SL-16 R/B 3.3 04:46:39 20° SW 04:49:45 30° W 04:55:10 10° NW
CZ-3B DEB 3.9 04:38:13 10° NW 04:51:04 64° WSW 05:00:53 10° SSE
Cosmos 1812 4.1 04:50:04 10° NW 04:52:57 20° W 04:53:36 19° WSW
ADEOS II 2.8 04:48:51 10° NNE 04:54:00 53° E 04:59:07 10° S
Cosmos 1975 Rocket 4.3 04:50:53 10° NW 04:54:21 24° W 04:55:49 20° WSW
Cosmos 2151 Rocket 3.8 04:51:48 20° SSW 04:54:44 53° W 04:59:10 10° N
Cosmos 2263 4.4 04:52:13 19° SW 04:56:22 62° WNW 05:02:07 10° NNE
USA 267 3.7 04:51:17 10° NE 04:57:37 54° NW 05:03:11 14° WSW
USA 161 0.8 04:59:05 20° S 05:00:29 71° WSW 05:02:56 10° NNW
Cosmos 1536 2.9 04:58:12 10° S 05:02:08 79° E 05:06:07 10° N
NOSS 3-2 (C) 3.8 04:57:46 18° SW 05:02:14 54° NW 05:08:36 10° NNE
NOSS 3-2 (A) 4.2 04:58:42 16° WSW 05:03:09 41° NW 05:09:17 10° NNE
Cosmos 158 Rocket 4.2 05:04:34 10° NNW 05:09:25 45° WSW 05:14:07 10° S
Cosmos 2344 4.2 05:05:50 14° WSW 05:12:14 47° NW 05:20:19 10° NNE
ASTRO E2 3.2 05:12:02 15° WSW 05:15:01 43° S 05:18:49 10° ESE
MOS 1-B 4.5 05:10:46 10° N 05:16:28 63° WNW 05:22:10 10° SSW
Cosmos 1536 Rocket 3.9 05:12:51 10° NNW 05:17:09 47° W 05:21:25 10° SSW
Cosmos 2315 Rocket 4.1 05:12:42 10° NNW 05:18:54 62° W 05:25:02 10° S
Cosmos 1025 Rocket 4.2 05:15:59 10° N 05:20:15 48° E 05:24:29 10° SSE
CENTAUR R/B 2.7 05:14:37 10° SSW 05:20:25 68° ESE 05:26:59 10° NE
BREEZE-M DEB (TANK) 2.4 05:19:37 10° WNW 05:23:12 53° SW 05:25:50 10° SE
PSLV R/B 3.7 05:20:24 10° N 05:24:04 63° WNW 05:27:44 10° SSW
IRS-1C Rocket 4.4 05:22:01 10° NNE 05:27:18 73° ESE 05:32:32 10° S
Gbstr 26 Del rocket 3.7 05:27:53 10° WSW 05:31:20 34° NW 05:34:53 10° NNE
PSLV R/B 3.5 05:28:51 10° N 05:33:06 78° WNW 05:37:22 10° SSW
DNEPR-1 R/B 4.2 05:27:52 10° SSW 05:33:41 73° ESE 05:38:31 10° NE
Okean 1-7 Rocket 3.8 05:29:48 10° N 05:34:17 76° E 05:38:42 10° S
Tiangong 2 3.8 05:38:53 10° SSE 05:39:56 11° SE 05:40:58 10° ESE
CZ-4B R/B 3.3 05:36:25 10° N 05:41:59 81° WNW 05:47:37 10° SSW
Okean 1 Rocket 3.7 05:39:20 10° SSW 05:43:32 40° W 05:47:46 10° N
Meteor 2-4 Rocket 3.9 05:40:14 10° NNW 05:45:37 49° W 05:50:51 10° SSW
